Location: Unspecified
(0.0000°N, 0.0000°E)
Time: 12:41:59
(UTC+00:00)

Hubble Space Telescope - Pass Details

Date: 26 May 2019
Orbit: 536 x 540 km, 28.5° (Epoch: 16 June)

Event Time Altitude Azimuth Distance (km) Brightness Sun altitude
Rises 19:35:40 0° 304° (NW) 2,666 5.7 -22.9°
Reaches altitude 10° 19:37:56 10° 307° (NW) 1,777 4.4 -23.4°
Enters shadow 19:41:32 61° 344° (NNW) 604 1.1 -24.2°
